x

Gulf Of Maine - 78 Nm East Of Portsmouth, Nh (44005) Wave Buoy

1:50 - Sat 2nd Aug 2014 All times are EDT. -4 hours from GMT.

  • Sig Wave height 2.6ft
  • Peak Period 7s
  • Average Period 5s
  • Wind
    11mph, 13mph gusts
  • Sea Temp 68°f
  • Aire Temp 69°f
  • Sea Pressure 1022.9mb
  • Gulf Of Maine - 78 Nm East Of Portsmouth, Nh
  • Gulf Of Maine - 78 Nm East Of Portsmouth, Nh

More Historic Weather Station data

Upgrade to MSW Pro to gain access to the past 30 days of data for over 8000 Wavebouys and Weather Stations around the globe.

Join Pro

Comparision Forecast

View Surf forecast
   
sáb 08/02 1:50 2.5ft 7s 5s 11 13 mph 1022.9mb 68f 69f
12:50 2.5ft 8s 5s 9 11 mph 1023.1mb 68f 69f
vie 08/01 11:50 3ft 7s 5s 9
mph
1022.7mb 68f 69f
10:50 3ft 7s 5s 11 13 mph 1022.5mb 67f 69f
9:50 3ft 8s 5s 11 13 mph 1022.8mb 68f 69f
8:50 3ft 8s 4s 16 18 mph 1023.2mb 68f 70f
7:50 2.5ft 8s 4s 13 16 mph 1022.9mb 68f 70f
6:50 2.5ft 8s 4s 16 18 mph 1022.7mb 68f 69f
5:50 2.5ft 8s 4s 11 13 mph 1022.7mb 68f 70f
4:50 2.5ft 8s 4s 11 13 mph 1022.4mb 68f 69f
3:50 2.5ft 8s 5s 11 13 mph 1022.5mb 68f 69f
2:50 2.5ft 7s 5s 9 11 mph 1022.9mb 68f 69f
1:50 3ft 7s 5s 9 11 mph 1023.1mb 68f 69f
12:50 3.5ft 7s 6s 7 11 mph 1023.4mb 68f 69f
11:50 3.5ft 7s 6s 2 4 mph 1023.4mb 68f 69f
10:50 3.5ft 7s 6s 4 7 mph 1023.5mb 68f 69f
9:50 3.5ft 7s 6s 7 9 mph 1023.1mb 68f 68f
8:50 3.5ft 8s 5s 7 9 mph 1023mb 67f 68f
7:50 3ft 8s 5s 4 7 mph 1022.6mb 67f 68f
6:50 3ft 8s 5s 4 7 mph 1021.9mb 67f 68f
5:50 3ft 8s 5s 11
mph
1021.3mb 67f 68f
4:50 3ft 8s 5s 13 16 mph 1020.8mb 67f 69f
3:50 3.5ft 8s 4s 11 13 mph 1020.6mb 67f 68f
2:50  -   -   -  18 20 mph 1020.4mb 67f 69f
1:50 3.5ft 9s 4s 16 20 mph 1020.3mb 67f 69f
12:50 3.5ft 8s 4s 16 18 mph 1020.8mb 67f 69f
jue 07/31 11:50 4ft 7s 5s 13 18 mph 1020.8mb 67f 69f
10:50 3.5ft 7s 5s 13 16 mph 1020.8mb 67f 69f
9:50 4ft 8s 5s 11 13 mph 1020.9mb 67f 68f
8:50 4ft 8s 5s 13 16 mph 1020.5mb 67f 69f
7:50 3.5ft 8s 5s 16 18 mph 1019.7mb 67f 68f
6:50 4ft 8s 5s 13 16 mph 1019.4mb 68f 69f
5:50 4ft 8s 5s 13 16 mph 1019.2mb 68f 69f
4:50 3.5ft 8s 5s 11 13 mph 1019.2mb 68f 69f
3:50 3.5ft 8s 5s 11 13 mph 1019mb 68f 69f
2:50 3ft 8s 5s 11 13 mph 1019.2mb 67f 69f
1:50 3.5ft 9s 6s 9 13 mph 1019.4mb 67f 69f
12:50 3.5ft 9s 6s 11 13 mph 1019.5mb 67f 68f
11:50 3.5ft 7s 6s 11 13 mph 1019.4mb 67f 68f
10:50 3.5ft 8s 6s 9 11 mph 1019.2mb 67f 68f
9:50 3.5ft 8s 6s 9 11 mph 1019.3mb 67f 68f
8:50 4ft 8s 7s 7 9 mph 1019.2mb 67f 67f
7:50 3.5ft 8s 6s 9 11 mph 1018.7mb 66f 67f
6:50 3.5ft 8s 6s 9 11 mph 1018.4mb 66f 67f
5:50 3.5ft 9s 6s 7 9 mph 1018mb 66f 67f
4:50 3.5ft 8s 6s 7 9 mph 1017.6mb 66f 67f
3:50 3.5ft 8s 6s 4 7 mph 1016.8mb 66f 67f
2:50 4ft 9s 6s 4 7 mph 1016.6mb 67f 67f
1:50 4ft 9s 6s 4 7 mph 1016.6mb 67f 68f
12:50 4ft 9s 7s 7 9 mph 1016.7mb 67f 68f
mié 07/30 11:50 4ft 9s 6s 7
mph
1016.8mb 67f 68f
10:50 4ft 8s 7s 7 9 mph 1016.7mb 67f 68f
9:50 4ft 8s 7s 7 9 mph 1016.6mb 67f 68f
8:50 3.5ft 8s 7s 7 9 mph 1016.2mb 67f 68f
7:50 3.5ft 9s 7s 7
mph
1015.9mb 68f 69f
6:50 3.5ft 9s 7s 4 7 mph 1015.6mb 68f 69f
5:50 2.5ft 9s 7s 4 7 mph 1015.1mb 69f 69f
4:50 3ft 8s 7s  -  mph 1014.8mb 68f 69f
3:50 2.5ft 8s 6s  -  mph 1014.9mb 68f 69f
2:50 3ft 9s 6s 2 4 mph 1014.9mb 67f 67f
1:50 3.5ft 8s 6s 7
mph
1014.9mb 67f 67f
12:50 3.5ft 9s 6s 4 7 mph 1015.2mb 67f 67f
11:50 3.5ft 8s 6s 2 4 mph 1015.3mb 66f 66f
10:50 3.5ft 8s 6s 9 11 mph 1015.5mb 66f 67f
9:50 4ft 9s 6s 9
mph
1015.4mb 66f 67f
8:50 4.5ft 8s 7s 9 13 mph 1015.4mb 67f 66f
7:50 4.5ft 8s 7s 9 11 mph 1015.4mb 67f 66f
6:50 4ft 8s 7s 4 7 mph 1015.2mb 66f 66f
5:50 4ft 8s 7s 9
mph
1014.3mb 66f 66f
4:50 4ft 8s 7s 7 9 mph 1014.1mb 66f 66f
3:50 3.5ft 8s 6s 7 9 mph 1013.7mb 66f 66f
2:50 3.5ft 9s 6s 7 9 mph 1013.6mb 66f 66f
1:50 3.5ft 8s 6s 7 9 mph 1013.5mb 66f 66f
12:50 3.5ft 8s 6s 9 11 mph 1013.6mb 66f 66f
mar 07/29 11:50 4ft 8s 6s 9 11 mph 1013mb 66f 67f
10:50 4.5ft 8s 6s 11
mph
1012.9mb 66f 67f
9:50 4.5ft 8s 6s 11 13 mph 1012.8mb 66f 67f
8:50 5ft 8s 6s 13 16 mph 1012.3mb 67f 67f
7:50 5ft 8s 7s 13 16 mph 1012.3mb 68f 67f
6:50 5ft 8s 7s 9 11 mph 1011.6mb 68f 67f
5:50 5ft 8s 6s 9 11 mph 1011mb 68f 68f
4:50 4.5ft 8s 6s 7 9 mph 1010.7mb 68f 68f
3:50 4.5ft 8s 6s 9
mph
1009.9mb 67f 67f
2:50 5ft 9s 6s 7 9 mph 1009.3mb 67f 67f
1:50 5ft 8s 6s 7 9 mph 1008.5mb 67f 66f
12:50  -   -   -  4 7 mph 1007.8mb 67f 66f
11:50 6ft 9s 6s 11 16 mph 1007.3mb 67f 65f
10:50 6ft 8s 6s 11 13 mph 1006.6mb 67f 66f
9:50 6.5ft 8s 6s 16 18 mph 1006mb 67f 65f
8:50 6ft 8s 5s 18 22 mph 1005mb 66f 65f
7:50 6ft 7s 5s 20 22 mph 1003.8mb 66f 66f